Погода в Фано

Италия     43°50′30″N   13°00′47″E
темп.,
°C
ветер,
м/с
пор.,
м/с
влажн.,
%
обл.,
%
осадки,
мм/ч
давл.,
гПа
погр.,
м
13 мая, чт
чт1323:00+10юз44760 0.0 100947
02:00+10ююз227654 0.0 100828
05:00+9юз327995 0.0 100724
08:00+13юз227352 0.0 1006158
11:00+19зюз465148 0.0 10061588
14:00+20зюз684799 0.0 10052397
17:00+19з595221 0.1 10051497
20:00+14ссв11734 0.1 100511
14 мая, пт
пт1423:00+10ююз33745 0.0 100737
02:00+10зюз48785 0.0 1008203
05:00+8юз22885 0.0 100835
08:00+13ююз267244 0.0 1009286
11:00+18зюз354922 0.0 10101631
14:00+19ю2454100 0.0 10101794
17:00+19ююз6856100 0.1 10081555
20:00+14ююз2275100 0.6 100927
15 мая, сб
сб1523:00+12зюз1196100 3.4 101127
02:00+11юз2295100 6.1 101179
05:00+11зюз229178 0.0 101022
08:00+13зюз117966 0.0 1012147
11:00+17всв116574 0.0 1012924
14:00+18в436856 0.6 1011616
17:00+17вюв557266 1.1 1010424
20:00+14зюз337198 1.4 101045
16 мая, вс
вс1623:00+12зюз396771 0.0 1011203
02:00+13з1162100 0.0 101038
05:00+14юз2261100 0.0 101038
08:00+15юз3572100 0.0 1011200
11:00+19юз4662100 0.0 10111025
14:00+19юз4764100 0.0 10111132
17:00+16юв2383100 0.4 1010109
20:00+16ююв2388100 0.4 1010105
17 мая, пн
пн1723:00+14ююз2288100 0.0 101012
02:00+12ююз338999 0.0 100931
05:00+13ююз2280100 0.0 100943
08:00+17ююв247264 0.0 1009182
11:00+22юз375487 0.0 10091634
14:00+23зюз51258100 0.1 10092165
17:00+23з7155051 0.0 10082110
20:00+18з71443100 0.0 1010750